Regional Weather Roundup
Issued by NWS

Home | Current Version | Previous Version | Text Only | Print | Product List | Glossary On
Versions: 1 2 3 4 5 6 7 8 9 10 11 12 13 14 15 16 17 18 19 20 21 22 23 24 25 26 27 28 29 30 31 32 33 34 35 36 37 38 39 40 41 42 43 44 45 46 47 48 49 50
945
ASUS43 KTOP 191559
RWRKS

WEATHER ROUNDUP FOR KANSAS
NATIONAL WEATHER SERVICE GOODLAND KS
1100 AM CDT THU OCT 19 2017

NOTE:  "FAIR" INDICATES FEW OR NO CLOUDS BELOW 12,000 FEET WITH NO
SIGNIFICANT WEATHER AND/OR OBSTRUCTIONS TO VISIBILITY.

KSZ001>006-013>018-027>032-041>047-191700-
NORTHWEST KANSAS

CITY           SKY/WX    TMP DP  RH WIND       PRES   REMARKS
GOODLAND       SUNNY     67  44  43 S10       30.06F
HAYS           SUNNY     65  47  52 S7        30.07F
HILL CITY      SUNNY     61  44  53 CALM      30.07S
RUSSELL        SUNNY     64  50  60 S9        30.06S
$$

KSZ061>065-074>080-084>089-191700-
SOUTHWEST KANSAS

CITY           SKY/WX    TMP DP  RH WIND       PRES   REMARKS
DODGE CITY     CLOUDY    68  46  45 MISG      30.10S
ELKHART          N/A     59  46  62 SE3         N/A
GARDEN CITY    CLOUDY    65  46  50 S7        30.08S
GREAT BEND     SUNNY     67  51  56 S10       30.08S
LIBERAL        MOSUNNY   61  48  62 SE7       30.09F
$$

KSZ066>073-081>083-090>101-191700-
SOUTHEAST KANSAS

CITY           SKY/WX    TMP DP  RH WIND       PRES   REMARKS
CHANUTE        SUNNY     69  50  50 S15       30.15S
COFFEYVILLE    SUNNY     69  54  58 S10       30.16R
HUTCHINSON     SUNNY     66  50  56 S13       30.10R
MEDICINE LODGE   N/A     63  47  55 S7        30.11S
NEWTON         SUNNY     67  48  50 S17       30.11S
PARSONS        SUNNY     69  51  52 S12       30.17S
WICHITA INTL   MOSUNNY   66  50  56 S15       30.11S
WICHITA JABRA  SUNNY     67  49  52 SW14G22   30.11S
WICHITA MCCONL SUNNY     67  49  52 SW13      30.11S
WINFIELD       SUNNY     67  50  54 S13       30.14F
$$

KSZ007>012-019>026-033>040-048>060-102>105-191700-
NORTHEAST KANSAS

CITY           SKY/WX    TMP DP  RH WIND       PRES   REMARKS
CONCORDIA      SUNNY     64  54  69 S5        30.07S
EMPORIA        SUNNY     66  50  56 S12       30.12R
LAWRENCE       SUNNY     66  51  58 S7        30.12S
MANHATTAN      SUNNY     67  52  58 SW7       30.09S
OLATHE IND     SUNNY     67  52  58 S10       30.13S
OLATHE EXE     SUNNY     65  49  56 SW10      30.13S
SALINA         SUNNY     68  53  58 S6        30.09S
TOPEKA BILLARD SUNNY     66  52  60 VRB6      30.11S
TOPEKA FORBES  SUNNY     68  51  54 S10       30.11S
$$




USA.gov is the U.S. government's official web portal to all federal, state and local government web resources and services.